Regional Weather Roundup
Issued by NWS Midland/Odessa, TX

Current Version | Previous Version | Text Only | Print | Product List | Glossary On
Versions: 1 2 3 4 5 6 7 8 9 10 11 12 13 14 15 16 17 18 19 20 21 22 23 24 25 26 27 28 29 30 31 32 33 34 35 36 37 38 39 40 41 42 43 44 45 46 47 48 49 50
000
ASUS44 KMAF 242001
RWRMAF
MIDLAND AREA WEATHER ROUNDUP
NATIONAL WEATHER SERVICE MIDLAND TX
300 PM CDT SUN JUN 24 2018

...IN SOUTHWEST TEXAS AND SOUTHEAST NEW MEXICO...

CITY           SKY/WX    TMP DP  RH WIND       PRES   REMARKS
ALPINE         SUNNY     99  43  14 W14G21    30.00F
ANDREWS        FAIR     103  40  11 W16G28    29.79F
ARTESIA        SUNNY    102  34   9 VRB7G13   29.79F
BIG SPRING     SUNNY    105  52  17 SW17G23   29.77F HX 102
CARLSBAD       PTSUNNY  105  36   9 MISG      29.76F
DRYDEN           N/A    100  65  31 S9G18     29.77F HX 103
FORT STOCKTON  SUNNY    104  45  13 W8        29.80F HX 100
GUAD PASS      SUNNY     97  30   9 W35G40    29.99R
HOBBS          NOT AVBL
LAMESA         FAIR     104  41  11 SW23      29.77F
MARFA          SUNNY     96  43  16 W17G24    30.00F
MIDLAND AIRPK    N/A    107  54  17 SW16G23   29.78F HX 105
MIDLAND INTL   SUNNY    105  49  15 SW18G25   29.77F HX 102
ODESSA         SUNNY    104  40  11 SW17G25   29.79F
PECOS          SUNNY    106  43  11 SW21G28   29.76F HX 101
PRESIDIO       FAIR     104  45  13 W15G21    29.84F HX 100
SEMINOLE       SUNNY    105  37   9 SW10G26   29.79F
SNYDER         SUNNY    101  65  30 S17G23    29.75F HX 104
WINK           SUNNY    107  41  10 W22G30    29.74F HX 101
$$
...OTHER STATIONS IN TEXAS...

CITY           SKY/WX    TMP DP  RH WIND       PRES   REMARKS
ABILENE        SUNNY     97  68  38 S18G25    29.77F HX 102
AMARILLO       SUNNY     81  65  58 E23G29    29.89F
AUSTIN         MOSUNNY   96  69  41 S20G28    29.85F HX 102
BROWNSVILLE    FAIR      92  76  59 SE15      29.84F HX 104
CORPUS CHRISTI PTSUNNY   87  79  76 SE21      29.87F HX 101
DALLAS FTW     MOSUNNY   97  68  38 S22G35    29.76F HX 102
DEL RIO        SUNNY    102  65  29 SE16G25   29.74F HX 105
EL PASO        MOSUNNY   98  38  12 W14G23    29.90F
HOUSTON INT    PTSUNNY   92  76  59 S15G25    29.91S HX 104
LUBBOCK        MOSUNNY  106  40  10 W14G23    29.75F HX 100
SAN ANGELO     SUNNY    104  61  24 S18G26    29.76F HX 105
SAN ANTONIO    PTSUNNY   96  68  39 SE16G26   29.86F HX 101
WACO           SUNNY    100  68  35 S22       29.82F HX 105
WICHITA FALLS  CLOUDY    74  65  73 N12       29.83R
$$
...OTHER LOCATIONS IN NEW MEXICO...

CITY           SKY/WX    TMP DP  RH WIND       PRES   REMARKS
ALAMOGORDO     SUNNY     97  27   8 W9        29.91F
ALBUQUERQUE    MOSUNNY   92  29  10 SW12G23   29.97F
CANNON AFB     SUNNY     89  58  35 N15G24    29.90F
CLOVIS         SUNNY     90  61  37 NE14G21   29.88F
HOLLOMAN AFB   MOSUNNY  101  25   7 W6        29.91F
ROSWELL        SUNNY    106  28   6 N8        29.78F
RUIDOSO        SUNNY     88  28  11 NW14G22   30.11F
SANTA FE       SUNNY     91  18   7 W13G31    30.01F
TRUTH OR CONSE SUNNY     97  25   7 S12G21    29.94F
TUCUMCARI      SUNNY     86  60  41 NE14      29.88F
$$




USA.gov is the U.S. government's official web portal to all federal, state and local government web resources and services.